Location: Andrest
(43.3200°N, 0.0641°E)
Time: 20:58:59
(UTC+00:00)

H-2A R/B - Pass Details

Date: 01 December 2020
Orbit: 578 x 654 km, 98.5° (Epoch: 20 January)

Event Time Altitude Azimuth Distance (km) Brightness Sun altitude
Rises 17:52:52 0° 4° (N) 2,848 5.3 -15.5°
Reaches altitude 10° 17:55:10 10° 355° (N) 1,952 4.5 -15.9°
Maximum altitude 17:58:58 33° 291° (WNW) 1,023 3.7 -16.6°
Drops below altitude 10° 18:02:50 10° 227° (SW) 1,981 5.6 -17.3°
Sets 18:05:11 0° 218° (SW) 2,896 6.3 -17.7°
